Tracking 35280 objects as of 7-Sep-2026
HD Live streaming from Space Station
objects crossing your sky now

M-3S2 DEB


M-3S2 DEB is no longer on orbit


NORAD ID: 22821
Int'l Code: 1993-011G
Launch date: February 20, 1993
Source: Japan (JPN)
Launch site: KAGOSHIMA SPACE CENTER UNIVERSITY OF TOKYO (KSCUT)
Decay date: 1998-09-19

Note: This is SATELLITE DEBRIS
Your satellite tracking list
Your tracking list is empty




NASA's NSSDC Master Catalog

Two Line Element Set (TLE):
1 22821U 93011G   98262.05670607 +.20258710 -33801-5 +31503-2 0  9997
2 22821 031.4211 193.8206 0001872 125.7007 234.3759 16.32826463310275
Source of the keplerian elements: AFSPC